This demonstration page uses our WeatherBlox Daily Observations layout. Learn more.

Left ArrowRight Arrow

41.12389, -100.76542

Hourly Observations for July 24, 2022

Temp ( °F °C ) Dew Point ( °F °C ) Humidity (%) Winds ( mph kmh ) Pressure ( in mb ) Visibility ( mi km ) Precip ( " mm )
12:53 am 00:53 Clear 74 23.3 59 15 60 60 N 9 15 29.93 1014 10 16 0.00 0.00
1:53 am 01:53 Clear 73 22.8 60 15.6 64 64 Calm 29.93 1014 10 16 0.00 0.00
2:53 am 02:53 Clear 71 21.7 60 15.6 68 68 E 6 9 29.93 1014 10 16 0.00 0.00
3:53 am 03:53 Clear 69 20.6 62 16.7 78 78 E 3 6 29.96 1015 10 16 0.00 0.00
4:53 am 04:53 Clear 66 18.9 61 16.1 84 84 NE 3 6 29.97 1015 10 16 0.00 0.00
5:53 am 05:53 Clear 63 17.2 59 15 87 87 NE 3 6 29.99 1016 10 16 0.00 0.00
6:53 am 06:53 Sunny 62 16.7 58 14.4 86 86 Calm 30.02 1017 10 16 0.00 0.00
7:53 am 07:53 Sunny 67 19.4 61 16.1 81 81 Calm 30.04 1017 10 16 0.00 0.00
8:53 am 08:53 Sunny 73 22.8 63 17.2 71 71 ENE 9 15 30.05 1018 10 16 0.00 0.00
9:53 am 09:53 Sunny 77 25 61 16.1 58 58 ENE 13 20 30.05 1018 10 16 0.00 0.00
10:53 am 10:53 Sunny 81 27.2 59 15 47 47 E 12 19 30.05 1018 10 16 0.00 0.00
11:53 am 11:53 Sunny 83 28.3 57 13.9 41 41 E 16 26 30.04 1017 10 16 0.00 0.00
12:53 pm 12:53 Sunny 86 30 59 15 40 40 E 16 26 30.05 1018 10 16 0.00 0.00
1:53 pm 13:53 Sunny 87 30.6 59 15 39 39 ENE 9 15 30.04 1017 10 16 0.00 0.00
2:53 pm 14:53 Sunny 87 30.6 58 14.4 37 37 SE 12 19 30.03 1017 10 16 0.00 0.00
3:53 pm 15:53 Sunny 86 30 60 15.6 42 42 SE 10 17 30.01 1016 10 16 0.00 0.00
4:53 pm 16:53 Sunny 85 29.4 61 16.1 45 45 SE 13 20 30.00 1016 10 16 0.00 0.00
5:53 pm 17:53 Sunny 85 29.4 61 16.1 45 45 SE 12 19 30.01 1016 10 16 0.00 0.00
6:53 pm 18:53 Sunny 82 27.8 62 16.7 51 51 ESE 12 19 29.99 1016 10 16 0.00 0.00
7:53 pm 19:53 Sunny 80 26.7 61 16.1 52 52 ESE 10 17 30.00 1016 10 16 0.00 0.00
8:53 pm 20:53 Sunny 76 24.4 63 17.2 64 64 ESE 7 11 30.02 1017 10 16 0.00 0.00
9:53 pm 21:53 Partly Cloudy 76 24.4 64 17.8 67 67 ESE 7 11 30.01 1016 10 16 0.00 0.00
10:53 pm 22:53 Mostly Cloudy with Light Rain 74 23.3 64 17.8 71 71 ESE 7 11 30.01 1016 10 16 0.00 0.00
11:53 pm 23:53 Mostly Cloudy 71 21.7 65 18.3 81 81 ESE 8 13 29.98 1015 10 16 0.00 0.00

Powered by AerisWeather